This is the latest recevied weather packets stored in our database for station/object N5TSS. If no packets are shown the sender has not sent any weather packets the latest 10 day(s).
| Time | Temp. | Humidity | Pressure | Rain* | Wind** | Luminosity | Snow |
|---|---|---|---|---|---|---|---|
| 1777847847 | 25° C | 47% | 1019.4 hPa | 0 mm | - | - | - |
| 1777847545 | 25° C | 46% | 1019.4 hPa | 0 mm | - | - | - |
| 1777847241 | 25° C | 43% | 1019.4 hPa | 0 mm | - | - | - |
| 1777846939 | 25.56° C | 41% | 1019.4 hPa | 0 mm | - | - | - |
| 1777846637 | 26.11° C | 38% | 1019.4 hPa | 0 mm | - | - | - |
| 1777846335 | 25.56° C | 42% | 1019.4 hPa | 0 mm | - | - | - |
| 1777846031 | 25.56° C | 45% | 1019.7 hPa | 0 mm | - | - | - |
| 1777845728 | 25.56° C | 41% | 1019.7 hPa | 0 mm | - | - | - |
| 1777845425 | 26.11° C | 38% | 1019.4 hPa | 0 mm | - | - | - |
| 1777845121 | 26.67° C | 37% | 1019.4 hPa | 0 mm | - | - | - |
| 1777844820 | 27.22° C | 37% | 1019.4 hPa | 0 mm | - | - | - |
| 1777844516 | 27.22° C | 36% | 1019.4 hPa | 0 mm | - | - | - |
| 1777844215 | 27.22° C | 36% | 1019.7 hPa | 0 mm | - | - | - |
| 1777843911 | 27.22° C | 35% | 1019.7 hPa | 0 mm | - | - | - |
| 1777843609 | 27.22° C | 36% | 1020.1 hPa | 0 mm | - | - | - |
| 1777843306 | 27.22° C | 36% | 1020.1 hPa | 0 mm | - | - | - |
| 1777843004 | 27.22° C | 37% | 1020.1 hPa | 0 mm | - | - | - |
| 1777842699 | 26.67° C | 38% | 1020.1 hPa | 0 mm | - | - | - |
| 1777842395 | 26.67° C | 36% | 1020.1 hPa | 0 mm | - | - | - |
| 1777842092 | 26.67° C | 38% | 1020.4 hPa | 0 mm | - | - | - |
| 1777841788 | 26.67° C | 35% | 1020.4 hPa | 0 mm | - | - | - |
| 1777841485 | 26.67° C | 37% | 1020.4 hPa | 0 mm | - | - | - |
| 1777841181 | 27.22° C | 36% | 1020.8 hPa | 0 mm | - | - | - |
| 1777840879 | 27.22° C | 37% | 1020.8 hPa | 0 mm | - | - | - |
| 1777840576 | 27.22° C | 36% | 1020.8 hPa | 0 mm | - | - | - |
* Rain latest hour (hover to see other rain measurements)
** Current wind speed in m/s (hover to see current wind gust speed)